CW6421 Weather Reports


Display with metric or nautical units.
time (UTC)temp
F
wind
direction
speed
MPH
gust
MPH
rain 1hr
in
rain 24hr
in
rain mn
in
humidity
%
barometer
mb
20260509160528 62 70 9.0 10.0 0.00 0.00 0.00 56 1020.1
20260509155528 62 72 8.0 10.0 0.00 0.00 0.00 56 1020.1
20260509154530 62 161 3.0 8.0 0.00 0.00 0.00 56 1020.1
20260509153526 62 177 4.0 7.0 0.00 0.00 0.00 56 1020.1
20260509152526 62 174 5.0 8.0 0.00 0.00 0.00 56 1020.1
20260509151530 62 123 3.0 8.0 0.00 0.00 0.00 56 1020.1
20260509150528 62 124 4.0 11.0 0.00 0.00 0.00 56 1020.4
20260509145528 62 136 4.0 11.0 0.00 0.01 0.00 56 1020.4
20260509143528 62 62 6.0 12.0 0.00 0.01 0.00 55 1020.4
20260509142527 62 69 5.0 10.0 0.00 0.01 0.00 55 1020.4
20260509141530 62 64 5.0 11.0 0.00 0.01 0.00 55 1020.4
20260509135527 62 60 5.0 9.0 0.00 0.01 0.00 55 1020.8
20260509134529 62 241 4.0 8.0 0.00 0.01 0.00 55 1020.8
20260509133527 62 248 4.0 7.0 0.00 0.01 0.00 55 1020.8
20260509132527 63 255 4.0 8.0 0.00 0.01 0.00 54 1020.8
20260509131530 63 331 5.0 8.0 0.00 0.01 0.00 54 1020.8
20260509130527 63 79 5.0 12.0 0.00 0.01 0.00 54 1021.2
20260509125528 63 60 4.0 12.0 0.00 0.01 0.00 55 1021.2
20260509124531 63 69 3.0 12.0 0.00 0.01 0.00 55 1021.2
20260509123527 63 64 2.0 13.0 0.00 0.01 0.00 54 1021.2
20260509122527 63 68 5.0 12.0 0.00 0.01 0.00 54 1021.2
20260509121530 64 69 4.0 11.0 0.00 0.01 0.00 53 1021.2
20260509120529 65 37 3.0 12.0 0.00 0.01 0.00 53 1021.5
20260509114637 61 26 1.0 12.0 0.00 0.01 0.00 55 1021.5
20260509113528 62 30 3.0 14.0 0.00 0.01 0.00 55 1021.5
20260509112526 62 23 1.0 14.0 0.00 0.01 0.00 55 1021.5
20260509111530 63 31 4.0 12.0 0.00 0.01 0.00 54 1021.5
20260509110527 63 259 5.0 12.0 0.00 0.00 0.00 55 1021.9
20260509105528 64 241 6.0 11.0 0.00 0.00 0.00 56 1021.9
20260509104530 62 169 3.0 12.0 0.00 0.00 0.00 55 1021.9
20260509103528 63 157 4.0 12.0 0.00 0.00 0.00 56 1021.9
20260509102528 64 152 3.0 8.0 0.00 0.00 0.00 58 1022.0
20260509101529 62 11 3.0 8.0 0.00 0.00 0.00 59 1022.0
20260509100528 62 21 3.0 8.0 0.00 0.00 0.00 59 1022.0
20260509094529 60 354 5.0 9.0 0.00 0.00 0.00 62 1022.0
20260509093527 60 357 6.0 10.0 0.00 0.00 0.00 63 1022.0
20260509092527 59 347 5.0 10.0 0.00 0.00 0.00 64 1022.0
20260509091529 59 27 4.0 8.0 0.00 0.00 0.00 66 1022.0
20260509090528 58 59 6.0 9.0 0.00 0.00 0.00 68 1022.0
20260509085527 58 54 6.0 8.0 0.00 0.00 0.00 69 1022.0
20260509084530 57 55 4.0 9.0 0.00 0.00 0.00 69 1022.0
20260509082528 56 64 5.0 9.0 0.00 0.00 0.00 71 1022.0
20260509080527 55 54 5.0 6.0 0.00 0.00 0.00 72 1021.9
20260509075527 54 70 6.0 7.0 0.00 0.00 0.00 74 1021.9
20260509074529 54 55 5.0 5.0 0.00 0.00 0.00 74 1021.9
20260509073528 54 55 5.0 6.0 0.00 0.00 0.00 74 1021.9
20260509070526 52 30 3.0 5.0 0.00 0.00 0.00 75 1021.8
20260509065528 52 31 3.0 5.0 0.00 0.00 0.00 76 1021.8
20260509064529 51 27 3.0 5.0 0.00 0.00 0.00 76 1021.8
20260509063527 51 20 3.0 5.0 0.00 0.00 0.00 77 1021.8
20260509062527 51 32 3.0 5.0 0.00 0.00 0.00 77 1021.8
20260509061530 50 40 2.0 5.0 0.00 0.00 0.00 77 1021.8
20260509060528 50 71 2.0 6.0 0.00 0.00 0.00 77 1021.5
20260509055526 50 82 3.0 5.0 0.00 0.00 0.00 77 1021.5
20260509054529 50 74 2.0 5.0 0.00 0.00 0.00 77 1021.5
20260509053527 50 74 2.0 5.0 0.00 0.00 0.00 77 1021.5
20260509052526 50 74 3.0 5.0 0.00 0.00 0.00 77 1021.5
20260509051530 49 83 4.0 5.0 0.00 0.00 0.00 77 1021.5
20260509050528 49 75 2.0 5.0 0.00 0.00 0.00 77 1021.4
20260509045526 49 70 4.0 5.0 0.00 0.00 0.00 76 1021.4
20260509044529 49 56 5.0 6.0 0.00 0.00 0.00 76 1021.4
20260509043527 49 61 4.0 5.0 0.00 0.00 0.00 76 1021.4
20260509042527 49 50 3.0 5.0 0.00 0.00 0.00 76 1021.4
20260509041529 49 59 3.0 5.0 0.00 0.00 0.00 76 1021.4
20260509040526 49 61 3.0 5.0 0.00 0.00 0.00 76 1021.5
20260509035527 49 54 4.0 5.0 0.00 0.00 0.00 76 1021.5
20260509034530 49 53 3.0 5.0 0.00 0.00 0.00 75 1021.5
20260509031530 49 55 3.0 5.0 0.00 0.00 0.00 75 1021.5
20260509030526 50 45 3.0 8.0 0.00 0.00 0.00 75 1021.5
20260509025525 50 40 4.0 8.0 0.00 0.00 0.00 75 1021.5
20260509024529 50 21 2.0 8.0 0.00 0.00 0.00 75 1021.5
20260509023526 50 28 2.0 8.0 0.00 0.00 0.00 75 1021.5
20260509021528 50 44 4.0 8.0 0.00 0.00 0.00 74 1021.5
20260509020527 50 32 5.0 7.0 0.00 0.00 0.00 74 1021.3
20260509015527 50 47 4.0 7.0 0.00 0.00 0.00 74 1021.3
20260509014528 50 27 6.0 6.0 0.00 0.00 0.00 73 1021.3
20260509013527 50 26 5.0 6.0 0.00 0.00 0.00 73 1021.3
20260509012525 51 35 6.0 8.0 0.00 0.00 0.00 73 1021.3
20260509011529 51 43 6.0 7.0 0.00 0.00 0.00 73 1021.3
20260509005526 51 48 5.0 9.0 0.00 0.00 0.00 73 1021.6
20260509004529 51 45 5.0 8.0 0.00 0.00 0.00 73 1021.6
20260509002526 51 43 4.0 8.0 0.00 0.00 0.00 73 1021.6
20260508235526 52 59 5.0 7.0 0.00 0.00 0.00 73 1021.6
20260508234530 52 32 5.0 8.0 0.00 0.00 0.00 73 1021.6
20260508233527 52 38 4.0 8.0 0.00 0.00 0.00 73 1021.6
20260508231527 52 28 3.0 8.0 0.00 0.00 0.00 73 1021.6
20260508230527 53 22 4.0 5.0 0.00 0.00 0.00 73 1021.6
20260508225529 53 20 5.0 6.0 0.00 0.00 0.00 73 1021.6
20260508223532 53 12 2.0 3.0 0.00 0.00 0.00 73 1021.6
20260508222527 53 21 4.0 5.0 0.00 0.00 0.00 73 1021.6
20260508221529 53 11 2.0 3.0 0.00 0.00 0.00 73 1021.6
20260508220528 53 345 3.0 6.0 0.00 0.00 0.00 72 1021.5
20260508214529 53 359 1.0 6.0 0.00 0.00 0.00 72 1021.5
20260508213530 53 354 1.0 6.0 0.00 0.00 0.00 71 1021.5
20260508212526 53 346 1.0 5.0 0.00 0.00 0.00 71 1021.5
20260508211528 53 343 1.0 6.0 0.00 0.00 0.00 71 1021.5
20260508210528 54 88 2.0 6.0 0.00 0.00 0.00 70 1021.3
20260508204529 54 75 2.0 6.0 0.00 0.00 0.00 69 1021.3
20260508203526 54 77 2.0 5.0 0.00 0.00 0.00 70 1021.3
20260508202528 54 76 3.0 6.0 0.00 0.00 0.00 69 1021.3
20260508200528 54 89 4.0 7.0 0.00 0.00 0.00 69 1021.0
20260508194530 54 86 4.0 8.0 0.00 0.01 0.00 69 1021.0
20260508193528 54 72 2.0 8.0 0.00 0.01 0.00 69 1021.0
20260508190528 55 61 4.0 10.0 0.00 0.01 0.00 67 1020.5
20260508185527 55 74 3.0 11.0 0.00 0.01 0.00 67 1020.5
20260508184530 55 65 4.0 11.0 0.00 0.01 0.00 67 1020.5
20260508183527 55 60 7.0 10.0 0.00 0.01 0.00 66 1020.5
20260508182526 56 50 6.0 11.0 0.00 0.01 0.00 65 1020.5
20260508181528 56 64 6.0 10.0 0.00 0.01 0.00 65 1020.5
20260508180528 56 67 7.0 10.0 0.00 0.01 0.00 65 1020.2
20260508175528 56 72 5.0 10.0 0.00 0.01 0.00 65 1020.2
20260508173527 57 65 7.0 9.0 0.00 0.01 0.00 64 1020.2
20260508172527 57 77 8.0 9.0 0.00 0.01 0.00 64 1020.2
20260508171529 57 89 5.0 10.0 0.00 0.02 0.00 64 1020.2
20260508170526 57 76 6.0 12.0 0.00 0.02 0.00 64 1020.2
20260508165527 58 79 4.0 11.0 0.00 0.02 0.00 63 1020.2
20260508162528 58 68 6.0 12.0 0.00 0.02 0.00 63 1020.2
20260508161530 58 80 6.0 10.0 0.00 0.02 0.00 62 1020.2